Location: Unspecified
(35.7250°N, 0.0000°E)
Time: 13:41:54
(UTC+00:00)

Tiros 1 - Pass Details

Date: 28 June 2019
Orbit: 631 x 664 km, 48.4° (Epoch: 24 August)

Event Time Altitude Azimuth Distance (km) Brightness Sun altitude
Rises 23:00:50 0° 291° (WNW) 2,958 11.0 -29.2°
Reaches altitude 10° 23:03:53 10° 310° (NW) 2,041 10.4 -29.4°
Maximum altitude 23:07:04 18° 353° (N) 1,587 9.9 -29.5°
Drops below altitude 10° 23:10:13 10° 36° (NE) 2,028 10.1 -29.7°
Sets 23:13:15 0° 56° (NE) 2,931 10.8 -29.8°
